Volver al catálogo

STARLINK-11640

ActivoComunicacionesVLEO
NORAD 63314·PAYLOAD·🇺🇸 United States

Lanzado Mar 18, 2025 desde Cape Canaveral Space Force Station

Loading…

Próximos Pases (próximas 24 horas)

TLE

ActualizadoSource: CelesTrak SupGP

Época: Sep 14, 2026, 22:17 UTC

1 63314C 25057H   26257.92895833  .00039431  00000+0  30624-3 0  2579
2 63314  43.0006 203.9739 0001375 251.3703 292.2804 15.70820603    12

Sigue STARLINK-11640 en tiempo real con AllMySat

Download on the App Store